Вернуться в каталог

STARLINK-5189

АктивенСвязьVLEO
NORAD 54052·PAYLOAD·🇺🇸 United States

Запущен Oct 20, 2022 с Cape Canaveral Space Force Station

Loading…

Ближайшие Пролёты (ближайшие 24 часа)

TLE

СвежийSource: CelesTrak SupGP

Эпоха: Sep 14, 2026, 22:12 UTC

1 54052C 22136B   26257.92548611 -.00038247  00000+0 -23988-2 0  2572
2 54052  53.1588 173.7953 0001580  90.1596 351.0213 15.08850020    12

Отслеживайте STARLINK-5189 в реальном времени с AllMySat

Download on the App Store